Preview of NWS' New Version of Forecast
This preview is not operational and should not be used for support decisions.

Regional Weather Roundup (RWR)

Issued by National Weather Service (NWS)

                            
000
ASUS43 KLSX 241157
RWRMO 

WEATHER SUMMARY FOR MISSOURI
NATIONAL WEATHER SERVICE SPRINGFIELD MO
700 AM CDT WED APR 24 2019

NOTE: "FAIR" INDICATES FEW OR NO CLOUDS BELOW 12,000 FEET WITH NO
       SIGNIFICANT WEATHER AND/OR OBSTRUCTIONS TO VISIBILITY.
       CURRENT SKY AND/OR WEATHER CONDITIONS ARE NOT AVAILABLE FOR
       CHILLICOTHE AND FARMINGTON.

MOZ001>031-035>038-043-044-053-054-241300-
...NORTHERN AND WESTERN MISSOURI...
  
CITY           SKY/WX    TMP DP  RH WIND       PRES   REMARKS
KANSAS CTY INT CLOUDY    52  49  89 CALM      29.94R                  
6HR MIN TEMP:  52; 6HR MAX TEMP:  52; 6HR PCP: TRACE;                

LEE'S SUMMIT   CLOUDY    53  50  89 NE3       29.94S                  
6HR MIN TEMP:  53; 6HR MAX TEMP:  53; 6HR PCP: TRACE;                

ST JOSEPH      CLOUDY    51  51 100 N3        29.95R                  
6HR MIN TEMP:  51; 6HR MAX TEMP:  52; 6HR PCP:  0.02;                

CHILLICOTHE      N/A     52  49  89 CALM      29.96R                  
6HR MIN TEMP:  52; 6HR MAX TEMP:  54; 6HR PCP:  0.01;                

     
$$
MOZ066>068-077>081-088>096-101>105-241300-
...SOUTHWEST MISSOURI...
  
CITY           SKY/WX    TMP DP  RH WIND       PRES   REMARKS
SPRINGFIELD    FOG       57  55  93 NW5       29.91R VSB 1/4          
6HR MIN TEMP:  56; 6HR MAX TEMP:  59; 6HR PCP: TRACE;                

JOPLIN         LGT RAIN  54  54 100 NW5       29.92F VSB 3/4          
6HR MIN TEMP:  54; 6HR MAX TEMP:  57; 6HR PCP:  0.18;                

BRANSON        CLOUDY    59  59 100 CALM      29.94R FOG              
               
$$
MOZ032>034-039>042-045>050-055>058-069>072-241300-
...CENTRAL MISSOURI...  
  
CITY           SKY/WX    TMP DP  RH WIND       PRES   REMARKS
COLUMBIA       NOT AVBL                                               
JEFFERSON CITY CLOUDY    57  55  93 CALM      29.91F                  
6HR MIN TEMP:  56; 6HR MAX TEMP:  58; 6HR PCP:  0.29;                

ROLLA          CLOUDY    56  54  93 E6        29.91S FOG              
6HR MIN TEMP:  56; 6HR MAX TEMP:  56; 6HR PCP:  0.28;                

SEDALIA        CLOUDY    52  52 100 N3        29.94R FOG              
6HR MIN TEMP:  52; 6HR MAX TEMP:  52; 6HR PCP:  0.01;                

WARRENSBURG    CLOUDY    52  52 100 N5        29.94S FOG              
OSAGE BEACH    FOG       55  55 100 CALM      29.93R VSB 1            
               
$$
MOZ051-052-059>065-241300-
...EAST CENTRAL MISSOURI...
  
CITY           SKY/WX    TMP DP  RH WIND       PRES   REMARKS
ST LOUIS INTL  LGT RAIN  57  55  93 E8        29.94S FOG              
6HR MIN TEMP:  56; 6HR MAX TEMP:  58; 6HR PCP:  0.53;                

                   
$$
MOZ072>076-082>087-097>100-106>115-241300-
...SOUTH CENTRAL AND SOUTHEAST MISSOURI...
  
CITY           SKY/WX    TMP DP  RH WIND       PRES   REMARKS
CAPE GIRARDEAU CLOUDY    61  58  90 SE3       29.93R                  
6HR MIN TEMP:  57; 6HR MAX TEMP:  63;                                

POPLAR BLUFF   FOG       56  56 100 CALM      29.93R VSB 1/2          
6HR MIN TEMP:  56; 6HR MAX TEMP:  60;                                

WEST PLAINS    CLOUDY    63  57  81 SW5       29.93R                  
6HR MIN TEMP:  59; 6HR MAX TEMP:  63;                                

                                       
$$